M0HPP-13 Weather Reports


time (UTC)temp
F
wind
direction
speed
knots
gust
knots
rain 1hr
in
rain 24hr
in
rain mn
in
humidity
%
barometer
mb
20260509005529 36 230 0.9 3.5 0.00 0.00 0.00 91 1022.1
20260509004529 35 213 0.9 4.3 0.00 0.00 0.00 91 1022.0
20260509003529 35 255 0.9 3.5 0.00 0.00 0.00 91 1021.9
20260509002529 36 255 0.9 2.6 0.00 0.00 0.00 90 1021.7
20260509001529 36 241 0.9 2.6 0.00 0.00 0.00 90 1021.7
20260509000529 36 290 0.9 3.5 0.00 0.00 0.00 91 1021.7
20260508235529 36 299 0.9 2.6 0.00 0.00 0.00 90 1021.7
20260508234529 37 41 0.9 2.6 0.00 0.00 0.00 89 1021.6
20260508233529 37 104 1.7 3.5 0.00 0.00 0.00 89 1021.5
20260508232529 37 70 0.9 2.6 0.00 0.00 0.00 89 1021.4
20260508231529 36 261 0.9 3.5 0.00 0.00 0.00 90 1021.4
20260508230529 36 126 0.0 1.7 0.00 0.00 0.00 88 1021.3
20260508225529 37 299 0.0 1.7 0.00 0.00 0.00 86 1021.4
20260508224529 38 110 0.0 1.7 0.00 0.00 0.00 85 1021.3
20260508223529 39 97 0.0 3.5 0.00 0.00 0.00 84 1021.2
20260508222529 39 290 0.9 4.3 0.00 0.00 0.00 85 1021.1
20260508221529 39 273 1.7 4.3 0.00 0.00 0.00 84 1021.0
20260508220529 40 282 0.9 4.3 0.00 0.00 0.00 83 1020.9
20260508215529 40 256 1.7 4.3 0.00 0.00 0.00 82 1020.9
20260508214529 40 293 0.9 5.2 0.00 0.00 0.00 82 1020.7
20260508213529 41 286 1.7 6.1 0.00 0.00 0.00 80 1020.5
20260508212529 41 277 2.6 6.1 0.00 0.00 0.00 79 1020.4
20260508211529 41 296 2.6 7.8 0.00 0.00 0.00 78 1020.2
20260508210529 41 285 2.6 7.8 0.00 0.00 0.00 77 1020.1
20260508205529 42 288 2.6 6.1 0.00 0.00 0.00 76 1020.1
20260508204529 42 299 2.6 6.1 0.00 0.00 0.00 75 1020.0